Theta_e
317 328 328 327 327 326 325 326 325 323 324 326 325 325 325 323 324 325 326 321 328 332 332 331 330 328 326 324 323 323 322 320 319 318 317 316 316 313 312 311 310 310 309
318 314 324 327 326 326 325 325 324 323 323 325 324 324 323 323 323 325 325 324 325 329 332 331 330 329 327 326 323 322 322 320 318 317 316 315 313 311 309 309 308 307 306
318 317 312 315 326 326 325 325 324 322 321 323 324 324 323 322 321 322 324 325 325 324 328 331 329 328 327 326 324 323 322 320 318 317 316 313 311 310 308 307 307 306 305
311 315 313 312 318 326 325 324 322 320 319 320 321 323 323 323 322 322 324 324 324 325 325 328 329 328 327 326 326 323 322 320 318 317 315 313 311 309 307 307 305 304 303
308 313 313 311 311 317 324 324 322 320 318 319 319 321 319 320 322 322 322 323 324 324 324 324 324 324 326 326 325 325 322 320 318 316 315 312 311 308 307 305 304 303 302
306 310 310 310 309 307 307 323 321 321 319 318 312 305 301 301 303 306 318 322 323 322 322 322 321 320 322 326 325 325 324 321 319 316 314 312 310 308 306 305 303 302 301
304 303 302 303 307 305 304 304 321 319 318 316 301 298 295 295 297 298 299 301 309 319 321 321 321 320 320 324 325 325 324 322 320 317 314 312 310 308 306 304 303 302 301
298 298 299 301 305 305 304 304 302 318 318 307 309 303 295 295 293 294 295 296 296 296 309 317 319 318 318 319 319 324 324 323 320 317 314 312 309 307 305 303 302 301 300
297 297 298 299 302 303 302 302 304 303 313 306 316 308 296 303 293 290 291 292 292 293 294 300 314 316 316 317 318 320 321 321 319 316 314 311 309 306 305 303 301 300 299
292 294 297 299 300 302 302 303 304 305 307 306 312 314 303 297 303 290 288 288 290 291 291 294 298 307 314 315 313 312 314 317 316 314 312 310 307 305 303 301 300 299 299
291 293 296 298 300 301 303 306 305 306 305 309 309 311 303 296 300 295 287 286 287 289 291 292 293 295 302 312 313 310 312 314 312 310 308 306 304 303 301 299 298 298 298
288 290 292 293 295 297 298 300 302 302 304 305 311 313 309 304 303 300 293 293 293 286 289 290 291 291 294 304 307 306 309 310 309 306 304 302 300 299 298 297 297 297 296
287 287 289 291 292 295 297 300 301 302 303 303 307 311 312 311 311 308 305 291 288 284 286 287 289 290 292 297 302 302 304 306 304 302 299 298 296 295 294 294 294 295 294
287 288 289 291 293 295 295 296 298 302 303 304 307 311 312 311 311 308 306 296 286 283 284 285 287 288 289 293 298 298 299 300 300 298 296 295 294 292 291 292 292 292 292
288 288 288 289 290 292 294 294 295 299 303 306 310 311 311 311 310 308 308 302 300 287 286 285 285 286 287 290 294 293 294 296 297 296 295 294 292 291 290 290 290 291 292
288 288 288 289 290 291 293 294 294 298 304 305 309 310 310 310 308 305 304 302 306 303 293 287 285 286 286 287 288 287 289 293 294 294 293 292 291 290 289 289 289 290 290
287 287 288 288 289 291 293 294 295 296 299 303 306 309 307 305 304 303 303 300 303 302 298 285 287 286 285 285 285 286 287 286 288 291 291 291 290 288 287 288 287 288 288
287 287 289 289 289 291 292 293 292 294 296 299 299 298 296 299 297 297 298 297 300 293 289 286 285 284 286 285 284 284 284 284 284 288 289 289 288 287 287 286 286 286 285
286 287 289 288 287 287 287 290 290 291 294 297 296 298 293 296 292 291 290 288 287 287 286 284 280 284 283 282 281 281 280 279 281 287 288 288 287 286 285 285 285 283 282
285 286 287 287 287 288 287 288 288 289 291 291 290 291 291 293 291 289 289 288 287 287 286 285 282 281 280 281 281 277 275 277 276 279 282 282 284 284 285 284 283 281 280
285 285 285 286 287 287 288 288 289 289 288 287 287 288 288 288 290 290 289 288 287 286 284 282 279 278 277 277 277 277 275 274 274 275 275 275 275 275 275 281 277 278 278
285 285 285 285 285 286 291 292 289 288 287 287 286 286 287 287 290 291 291 290 289 285 282 281 279 277 276 278 277 276 274 273 272 274 273 272 272 271 271 270 275 277 278
283 283 284 285 285 287 290 290 288 287 286 286 286 285 285 286 286 286 288 288 287 288 286 283 279 278 276 277 277 275 275 274 271 271 271 268 269 268 270 271 276 278 278
281 282 282 283 284 286 288 287 286 284 283 284 284 284 284 283 284 282 281 279 280 281 282 282 281 279 279 279 279 277 274 269 269 269 269 265 265 265 266 267 274 276 277
280 281 282 282 282 283 287 286 283 282 281 281 281 282 282 282 284 284 279 278 278 279 283 283 282 283 282 282 277 273 269 268 262 265 267 266 264 263 263 263 267 272 276
280 280 281 281 282 283 286 285 282 281 279 280 281 282 283 282 284 283 279 278 276 277 278 279 279 280 279 279 279 274 271 265 261 260 265 262 260 260 260 259 262 264 266
Wind_Speed
8 5 5 6 7 7 8 8 7 8 9 12 13 12 11 10 8 6 7 14 20 24 27 25 25 23 22 21 21 20 19 18 15 14 14 13 14 12 10 9 8 8 8
1 3 8 6 7 8 8 9 9 9 9 10 12 12 12 10 10 9 9 11 18 23 24 26 25 25 24 22 20 21 20 19 17 16 16 13 11 10 9 10 8 6 6
2 1 4 8 7 8 11 10 10 9 9 9 12 11 11 13 11 11 9 10 12 19 25 26 27 27 27 26 21 21 21 21 19 18 17 14 12 11 10 8 8 8 7
6 5 5 4 9 10 9 9 11 10 10 11 10 11 10 12 13 13 11 11 11 11 16 25 26 27 27 26 26 22 22 22 21 19 17 15 13 12 10 9 8 6 6
8 7 6 7 5 7 12 11 11 13 11 11 10 10 7 7 10 9 13 14 15 13 11 19 23 25 26 28 27 26 23 22 21 21 19 17 15 13 11 9 8 7 5
8 9 5 6 8 7 7 13 16 14 12 12 8 5 3 4 2 2 8 12 13 15 14 14 13 13 25 27 28 29 27 24 23 22 20 18 17 15 12 10 8 7 5
8 8 7 8 6 8 11 9 13 18 13 10 7 2 2 2 4 3 2 4 4 12 15 13 11 11 12 27 27 29 28 27 27 25 23 20 17 15 12 10 9 8 6
13 12 12 11 10 9 10 10 9 10 12 15 10 7 4 2 1 2 2 1 1 2 7 14 15 14 13 12 16 27 28 28 26 24 24 21 19 16 14 11 9 8 6
12 14 15 13 12 10 10 12 11 14 11 11 19 8 5 7 4 1 3 3 2 1 1 4 11 15 15 13 15 18 25 28 28 24 23 22 20 17 15 12 10 8 6
14 15 15 14 13 11 13 12 12 15 11 15 13 15 2 8 6 3 1 2 3 3 2 2 4 7 13 12 16 18 23 24 25 25 23 22 19 18 15 12 9 8 7
13 14 13 12 10 8 9 10 11 9 12 10 16 15 9 2 3 5 5 4 2 4 4 3 3 3 7 12 11 14 20 24 23 24 23 21 19 15 14 11 9 8 7
10 14 15 14 14 13 13 10 9 12 13 14 12 17 17 14 12 7 4 7 9 2 4 6 4 4 3 9 13 18 25 24 24 26 26 20 18 16 13 10 8 8 6
11 12 14 15 13 16 16 13 11 12 14 12 16 16 15 17 13 12 11 5 5 2 3 2 2 4 3 5 12 21 25 26 29 27 25 22 19 16 12 10 8 7 7
12 14 14 13 11 11 10 9 9 10 12 13 20 19 14 15 14 12 13 10 3 3 1 4 2 3 3 2 10 28 20 30 31 29 26 23 20 16 12 10 8 7 7
13 15 16 14 14 16 18 17 13 15 13 13 16 14 14 12 13 11 12 13 12 9 9 6 6 7 5 5 12 13 17 26 29 29 27 24 20 15 12 9 8 8 9
15 15 16 15 15 15 15 12 9 10 11 11 10 15 13 8 9 9 11 12 12 12 10 5 4 8 11 8 11 11 14 21 25 26 26 23 19 15 12 9 9 9 9
14 14 15 14 14 15 13 13 13 10 14 11 10 15 17 10 8 9 9 10 11 9 10 3 4 8 12 12 10 8 12 9 12 24 23 21 18 14 10 10 8 9 8
13 14 14 13 13 11 10 10 10 9 13 10 11 9 10 9 10 7 5 6 9 3 4 12 6 7 11 11 12 13 8 7 9 16 20 18 16 13 12 9 9 8 7
12 13 13 12 12 12 11 9 9 11 12 12 10 11 10 13 10 7 7 7 6 5 5 7 5 3 6 9 13 9 9 7 5 15 15 15 12 11 11 10 11 8 6
8 9 11 12 12 12 10 11 12 11 12 8 8 10 10 13 13 12 10 11 10 9 9 9 8 8 6 8 8 9 8 3 6 4 7 6 7 10 12 12 10 6 5
6 4 3 6 10 9 9 12 12 11 10 9 9 11 10 12 15 14 10 10 11 7 8 9 8 7 7 11 12 6 7 7 3 2 3 2 2 3 1 7 4 7 7
10 7 6 4 3 1 9 14 12 9 11 13 12 12 12 15 16 16 16 14 11 14 10 7 4 10 10 11 8 9 10 5 4 1 3 4 2 3 4 3 8 9 9
12 13 12 10 10 9 18 16 14 10 11 12 13 14 11 10 17 15 21 20 15 12 7 6 14 10 14 10 13 12 10 5 3 5 4 3 1 2 2 3 10 10 8
15 14 14 13 12 12 24 24 22 14 14 14 13 13 14 14 16 17 15 15 11 8 7 7 9 11 10 12 11 9 10 8 7 4 2 3 2 3 0 1 7 8 9
14 14 14 15 14 14 23 26 20 12 16 15 14 10 10 16 24 25 16 15 13 10 15 20 19 19 21 22 17 12 7 8 3 1 1 3 2 1 0 1 1 4 8
12 11 15 15 17 17 27 26 20 11 15 11 13 13 20 20 22 19 14 13 16 11 12 14 13 16 14 15 16 5 9 5 4 1 3 4 1 2 2 1 1 1 2
Wind_Direction
343 264 216 207 204 198 200 197 181 172 179 189 196 189 182 188 183 168 181 184 180 179 177 171 172 167 169 170 170 167 165 161 161 157 149 144 136 133 138 126 115 118 108
272 341 308 220 214 207 202 196 179 178 182 187 191 197 191 185 186 183 182 189 187 183 180 177 174 173 170 172 175 175 165 162 163 161 151 152 154 147 143 141 143 123 112
254 167 245 307 215 214 207 203 182 176 177 183 193 189 192 190 185 188 187 189 186 190 184 182 178 181 176 172 180 179 170 169 169 166 157 162 163 157 154 143 139 135 141
263 223 262 275 288 217 208 211 188 181 187 189 194 189 187 192 186 193 190 195 195 187 195 185 182 185 181 178 174 184 177 176 174 172 173 169 166 163 159 155 145 143 141
253 241 215 225 270 280 215 199 201 188 185 193 195 196 187 188 192 190 198 199 197 190 187 195 187 185 185 182 180 181 187 181 178 175 172 170 169 170 164 163 158 161 144
252 252 227 220 207 261 273 215 200 191 194 191 170 156 142 130 127 122 212 199 199 194 185 191 186 189 188 186 186 184 185 186 181 176 178 174 175 168 170 170 171 172 169
252 255 263 257 225 209 237 269 236 194 186 166 135 86 24 63 151 159 153 290 198 190 183 184 188 188 191 189 191 192 188 185 181 179 177 178 174 170 166 178 181 182 182
264 259 255 253 234 227 227 238 251 234 185 167 181 151 188 235 260 167 168 164 266 1 232 185 185 189 187 190 193 199 193 186 186 184 178 173 170 169 169 180 187 189 198
261 257 255 250 242 224 229 227 238 260 196 183 192 169 163 213 138 179 200 167 232 213 313 269 189 189 187 186 185 190 196 188 183 183 177 171 169 168 173 176 184 196 206
260 263 263 254 246 238 230 224 211 227 281 192 200 203 111 137 188 159 222 244 170 215 187 299 273 182 186 186 188 182 187 186 178 179 179 169 168 166 175 171 185 198 211
267 262 262 264 255 239 234 220 212 211 223 261 206 185 178 152 148 140 162 182 271 177 161 220 222 273 168 180 184 172 176 173 171 169 167 162 161 168 169 172 183 206 216
265 257 253 252 253 252 250 241 229 216 230 236 237 207 194 190 189 180 132 169 207 216 185 172 192 160 253 169 176 171 167 164 161 154 151 155 157 162 167 170 187 208 223
262 257 251 247 245 242 241 235 223 224 218 233 247 223 205 207 200 202 181 155 159 169 160 230 211 168 191 175 165 150 147 149 149 151 148 154 155 163 162 171 186 203 220
254 251 251 250 249 247 244 241 239 234 228 222 234 212 215 209 205 192 188 169 117 134 161 154 139 217 149 180 163 141 145 150 153 151 150 155 159 154 161 178 192 204 217
252 251 249 247 246 246 239 237 235 235 223 228 222 205 218 211 205 193 194 187 182 167 199 191 161 190 161 152 156 140 145 153 157 150 151 154 151 155 169 188 202 217 225
246 249 246 241 237 240 249 248 248 255 233 228 221 200 206 204 200 193 186 189 198 193 185 154 216 165 158 157 145 137 140 151 152 149 151 149 152 160 174 188 213 224 232
241 242 241 242 242 245 236 232 232 232 247 218 211 198 204 174 177 195 202 185 188 181 184 131 122 158 152 157 150 137 139 142 145 152 148 147 153 161 172 208 216 229 234
236 235 237 231 237 241 243 249 237 235 241 236 189 174 167 155 153 160 170 197 211 161 124 151 143 155 165 159 148 136 134 133 134 148 144 151 156 161 192 205 219 221 241
250 233 226 224 230 235 223 232 254 234 241 244 189 188 163 153 149 143 134 122 107 89 84 121 108 109 121 141 130 120 117 106 102 144 151 151 160 177 194 209 219 223 248
272 242 228 222 220 222 218 224 228 234 231 198 162 150 150 157 150 146 138 137 129 127 123 127 124 132 131 146 132 137 127 130 122 85 99 116 172 203 201 213 213 240 247
337 324 279 235 228 222 221 219 213 181 154 126 118 122 122 122 131 145 143 141 135 129 134 133 131 139 136 151 163 159 129 124 89 97 99 118 127 123 194 212 217 215 222
6 13 24 25 26 132 198 179 149 140 129 122 113 103 108 112 123 118 122 136 144 144 136 131 138 152 153 155 141 146 135 136 151 146 110 152 142 173 184 194 215 211 225
21 24 30 37 50 62 84 91 102 100 105 106 114 110 105 105 99 107 101 101 98 113 136 141 151 156 154 153 143 139 147 130 121 141 120 151 135 197 210 225 214 217 243
34 32 32 36 51 67 85 88 83 85 85 84 82 96 109 123 110 103 98 83 79 81 105 117 128 133 135 140 144 138 128 98 74 62 94 145 164 215 267 283 239 252 260
39 39 37 39 45 49 60 72 74 73 77 72 76 84 107 100 107 111 106 109 96 94 102 107 114 122 135 136 129 123 126 125 86 158 227 113 164 167 102 298 267 269 232
43 42 46 44 48 51 54 66 71 63 73 76 75 72 85 92 100 106 110 118 104 104 104 98 99 104 108 127 128 105 144 129 117 60 228 108 147 110 351 241 280 343 17